Location: Waldport
(44.4270°N, 124.0680°W)
Time: 05:00:18
(UTC-08:00)

Amateur Radio Satellites - All Passes

Search period start: 17 January 2017 04:30
Search period end: 18 January 2017 04:30
Location: Waldport, 44.4270°N, 124.0680°W

Satellite Date Start Highest point End Downlink Frequencies (MHz)
Time Altitude Azimuth
MOZHAYETS 4 17 Jan 04:32:03 04:33:54 12° 272° (W) 04:35:45
ISS 17 Jan 04:32:13 04:35:14 33° 19° (NNE) 04:38:14 145.825
M-CUBED/EXP-1 PRIME 17 Jan 04:42:05 04:42:43 10° 265° (W) 04:43:21 437.505
GOMX 1 17 Jan 04:47:27 04:49:37 13° 87° (E) 04:51:44 467.674
CUSAT 1 17 Jan 04:48:40 04:53:14 37° 292° (WNW) 04:59:05 437.405
AIST 2 17 Jan 04:52:13 04:56:22 49° 51° (NE) 05:00:29 435.215
HORYU 2 17 Jan 04:59:29 05:02:52 21° 94° (E) 05:06:14 437.375
DANDE 17 Jan 05:01:51 05:05:23 84° 283° (WNW) 05:10:11 436.750
STARS 17 Jan 05:04:04 05:07:53 29° 264° (W) 05:11:44 437.465
CUBESAT XI-V 17 Jan 05:04:38 05:08:52 33° 264° (W) 05:13:09 437.345
Cubesat XI-IV 17 Jan 05:19:17 05:21:51 13° 88° (E) 05:24:25 437.490
STRAND 1 17 Jan 05:20:04 05:23:12 17° 59° (ENE) 05:26:19 437.568
ITAMSAT 1 17 Jan 05:34:45 05:36:31 12° 305° (NW) 05:38:17 435.822/435.867
NOAA 15 17 Jan 05:40:39 05:44:48 23° 93° (E) 05:48:56 137.62
DOVE 4 17 Jan 05:44:49 05:47:55 19° 92° (E) 05:50:56 437.250
Cosmos 2499 17 Jan 05:50:50 05:56:19 22° 64° (ENE) 06:01:38 435.465 / 435.565
AO-7 17 Jan 05:53:37 06:00:40 32° 306° (NW) 06:07:41 29.400- 29.500
BRITE-PL 17 Jan 06:00:38 06:05:30 45° 290° (WNW) 06:09:58 437.365/2234.400
PHONESAT 2.4 17 Jan 06:01:15 06:03:21 29° 181° (S) 06:05:27 2401.200-2431.200
LilacSat-2 17 Jan 06:06:44 06:10:22 39° 98° (E) 06:14:00 437.200
ISS 17 Jan 06:08:39 06:11:49 49° 217° (SW) 06:14:58 145.825
CUTE-I 17 Jan 06:15:22 06:20:28 44° 99° (E) 06:25:32 437.470
RS-15 17 Jan 06:17:34 06:28:18 32° 18° (NNE) 06:38:54 29.354- 29.394
GONETS M04 17 Jan 06:19:49 06:27:39 34° 68° (ENE) 06:35:26
GOMX 1 17 Jan 06:23:43 06:28:15 61° 287° (WNW) 06:32:30 467.674
AIST 2 17 Jan 06:31:28 06:34:30 19° 248° (WSW) 06:37:30 435.215
NOAA 18 17 Jan 06:31:39 06:36:34 33° 97° (E) 06:41:27 137.9125
HORYU 2 17 Jan 06:35:24 06:39:34 40° 290° (WNW) 06:43:43 437.375
CUTE 1.7 + AOD 2 17 Jan 06:51:25 06:53:39 14° 90° (E) 06:55:53 437.475
STRAND 1 17 Jan 06:56:42 07:01:47 73° 257° (WSW) 07:06:54 437.568
Cubesat XI-IV 17 Jan 06:57:13 07:02:34 83° 286° (WNW) 07:07:55 437.490
O/OREOS (USA 219) 17 Jan 07:07:12 07:11:36 59° 110° (ESE) 07:16:01 437.305
CANX-2 17 Jan 07:18:35 07:22:26 31° 96° (E) 07:26:16 2200.000
NOAA 15 17 Jan 07:19:42 07:24:51 51° 291° (WNW) 07:29:57 137.62
DOVE 4 17 Jan 07:21:52 07:25:49 37° 290° (WNW) 07:29:38 437.250
CUBEBUG 2 17 Jan 07:23:45 07:25:47 13° 90° (E) 07:27:50 437.445
HO-68 17 Jan 07:29:57 07:36:42 42° 98° (E) 07:43:24 435.675
PHONESAT 2.4 17 Jan 07:35:38 07:37:10 16° 198° (SSW) 07:38:43 2401.200-2431.200
SEEDS 17 Jan 07:37:32 07:41:15 28° 95° (E) 07:44:56 437.485
CINEMA 3 17 Jan 07:39:31 07:43:41 78° 101° (E) 07:47:55 145.822/145.860
LilacSat-2 17 Jan 07:41:47 07:44:22 17° 295° (WNW) 07:46:57 437.200
Cosmos 2499 17 Jan 07:43:02 07:50:14 71° 266° (W) 07:57:12 435.465 / 435.565
SO-50 17 Jan 07:49:32 07:52:20 16° 110° (ESE) 07:55:06 436.795
COMPASS 1 17 Jan 07:50:07 07:53:41 26° 95° (E) 07:57:12 437.405
CUTE-I 17 Jan 07:55:51 08:00:17 27° 296° (WNW) 08:04:43 437.470
UWE-3 17 Jan 07:58:58 08:02:12 20° 93° (E) 08:05:27 435.000/436.395/437.385
UNISAT 6 17 Jan 08:04:51 08:05:37 10° 59° (ENE) 08:06:23 437.425
AAUSAT CUBESAT 2 17 Jan 08:05:06 08:08:46 29° 95° (E) 08:12:25 437.432
FUNcube-1 17 Jan 08:05:57 08:08:07 13° 90° (E) 08:10:16 145.935
NOAA 18 17 Jan 08:12:17 08:17:14 36° 294° (WNW) 08:22:09 137.9125
GONETS M04 17 Jan 08:16:21 08:24:57 60° 269° (W) 08:33:33
TIGRISAT 17 Jan 08:17:55 08:19:59 13° 61° (ENE) 08:22:04 435.000
CUTE 1.7 + AOD 2 17 Jan 08:25:37 08:29:52 58° 286° (WNW) 08:34:04 437.475
ZACube-1 17 Jan 08:25:47 08:29:18 24° 94° (E) 08:32:52 437.345
ANTELSAT 17 Jan 08:31:06 08:34:07 19° 64° (ENE) 08:37:09 437.575/2403.000
RS-15 17 Jan 08:31:22 08:43:45 67° 48° (NE) 08:55:42 29.354- 29.394
Cubesat XI-IV 17 Jan 08:39:24 08:41:49 13° 304° (NW) 08:44:13 437.490
JAS-2 17 Jan 08:40:56 08:43:00 12° 52° (NE) 08:45:09 435.910
PRISM 17 Jan 08:43:17 08:47:27 86° 76° (ENE) 08:51:39 437.425
O/OREOS (USA 219) 17 Jan 08:48:24 08:51:25 17° 309° (NW) 08:54:26 437.305
CANX-2 17 Jan 08:54:35 08:58:11 26° 293° (WNW) 09:01:44 2200.000
CUBEBUG 2 17 Jan 08:58:33 09:02:46 61° 286° (WNW) 09:07:06 437.445
Oscar 11 17 Jan 09:08:30 09:12:48 55° 100° (E) 09:17:05 145.826/435.025
HUMSAT D 17 Jan 09:10:24 09:11:45 11° 89° (E) 09:13:06 437.325/437.525
SEEDS 17 Jan 09:13:15 09:16:52 27° 292° (WNW) 09:20:28 437.485
HO-68 17 Jan 09:17:46 09:24:24 42° 297° (WNW) 09:31:01 435.675
CINEMA 3 17 Jan 09:19:11 09:20:14 11° 300° (WNW) 09:21:18 145.822/145.860
COMPASS 1 17 Jan 09:25:31 09:29:11 29° 292° (WNW) 09:32:50 437.405
SO-50 17 Jan 09:27:34 09:32:16 70° 306° (NW) 09:36:56 436.795
UWE-3 17 Jan 09:34:45 09:38:48 40° 289° (WNW) 09:42:55 435.000/436.395/437.385
PCSat 17 Jan 09:35:39 09:40:30 32° 47° (NE) 09:45:19 145.827
UNISAT 6 17 Jan 09:37:23 09:41:40 87° 257° (WSW) 09:45:57 437.425
Cosmos 2499 17 Jan 09:40:11 09:41:48 11° 287° (WNW) 09:43:25 435.465 / 435.565
FUNcube-1 17 Jan 09:40:26 09:44:43 62° 286° (WNW) 09:49:05 145.935
AAUSAT CUBESAT 2 17 Jan 09:40:39 09:44:09 26° 293° (WNW) 09:47:38 437.432
TIGRISAT 17 Jan 09:51:56 09:56:10 65° 259° (W) 10:00:24 435.000
DELFI C3 17 Jan 09:53:25 09:57:24 59° 100° (E) 10:01:20 145.870
ZACube-1 17 Jan 10:01:43 10:05:39 34° 290° (WNW) 10:09:38 437.345
ANTELSAT 17 Jan 10:06:30 10:10:33 42° 262° (W) 10:14:37 437.575/2403.000
QB50P1 17 Jan 10:13:30 10:16:52 24° 66° (ENE) 10:20:14 145.935-145.965
POLYITAN 1 17 Jan 10:16:23 10:19:51 26° 67° (ENE) 10:23:19 437.675
QB50P2 17 Jan 10:17:21 10:20:56 28° 68° (ENE) 10:24:32 145.880/145.840
GONETS M04 17 Jan 10:17:55 10:19:44 11° 290° (WNW) 10:21:34
JAS-2 17 Jan 10:21:42 10:26:57 76° 73° (ENE) 10:32:43 435.910
POPSAT HIP 1 17 Jan 10:39:20 10:43:18 43° 71° (ENE) 10:47:17 437.405
ESTCUBE 1 17 Jan 10:40:10 10:42:47 15° 90° (E) 10:45:24 437.505/2401.250
HUMSAT D 17 Jan 10:43:33 10:47:49 71° 285° (WNW) 10:52:05 437.325/437.525
RS-15 17 Jan 10:44:34 10:55:41 43° 252° (WSW) 11:06:27 29.354- 29.394
Oscar 11 17 Jan 10:45:49 10:48:30 16° 297° (WNW) 10:51:11 145.826/435.025
DUCHIFAT 1 17 Jan 10:54:29 10:58:33 54° 73° (ENE) 11:02:38 145.980
NANOSAT C BR1 17 Jan 10:58:04 11:02:13 66° 74° (ENE) 11:06:22 145.865
SO-50 17 Jan 11:10:53 11:13:34 15° 327° (NNW) 11:16:15 436.795
PCSat 17 Jan 11:18:53 11:24:04 46° 246° (WSW) 11:29:12 145.827
Oscar 19 17 Jan 11:21:07 11:24:06 16° 58° (ENE) 11:27:07 437.125/150
DELFI C3 17 Jan 11:29:48 11:31:43 13° 298° (WNW) 11:33:37 145.870
BY70-1 17 Jan 11:33:34 11:36:59 61° 286° (WNW) 11:40:14 436.1900
50 SAT 17 Jan 11:39:23 11:41:21 14° 92° (E) 11:43:19 437.505
BUGSAT 1 17 Jan 11:43:18 11:47:22 69° 74° (ENE) 11:51:24 437.445
QB50P1 17 Jan 11:48:43 11:52:29 32° 263° (W) 11:56:17 145.935-145.965
DX 1 17 Jan 11:50:35 11:52:51 14° 91° (E) 11:55:07 434.975-435.025
POLYITAN 1 17 Jan 11:51:52 11:55:32 29° 264° (W) 11:59:15 437.675
QB50P2 17 Jan 11:53:05 11:56:41 27° 265° (W) 12:00:18 145.880/145.840
UKube-1 17 Jan 11:57:14 11:58:48 12° 89° (E) 12:00:22 .
SPROUT 17 Jan 12:00:27 12:04:06 27° 95° (E) 12:07:44 437.525
CUBEBUG 1 17 Jan 12:00:49 12:05:07 60° 101° (E) 12:09:23 437.445
AISAT 17 Jan 12:08:06 12:12:21 46° 99° (E) 12:16:33 437.250
JAS-2 17 Jan 12:10:11 12:12:56 14° 274° (W) 12:15:47 435.910
ESTCUBE 1 17 Jan 12:15:30 12:19:58 58° 287° (WNW) 12:24:25 437.505/2401.250
POPSAT HIP 1 17 Jan 12:16:26 12:19:17 18° 268° (W) 12:22:07 437.405
Cosmos 2491 17 Jan 12:30:32 12:38:17 33° 67° (ENE) 12:46:00 435.465 / 435.565
DUCHIFAT 1 17 Jan 12:32:23 12:34:34 14° 270° (W) 12:36:45 145.980
NANOSAT C BR1 17 Jan 12:36:55 12:38:23 12° 271° (W) 12:39:49 145.865
VELOX 1 17 Jan 12:41:37 12:46:03 83° 283° (WNW) 12:50:25 145.980
Gurwin Techsat 1B 17 Jan 12:44:40 12:49:40 44° 69° (ENE) 12:54:43 435.225
YUBILEINY 17 Jan 12:45:35 12:49:21 13° 72° (ENE) 12:53:08 435.215
Oscar 19 17 Jan 12:57:34 13:02:46 80° 257° (WSW) 13:08:00 437.125/150
AO-7 17 Jan 13:10:23 13:17:02 28° 52° (NE) 13:23:42 29.400- 29.500
50 SAT 17 Jan 13:11:25 13:14:45 38° 288° (WNW) 13:18:04 437.505
BUGSAT 1 17 Jan 13:22:28 13:23:10 10° 271° (W) 13:23:52 437.445
DX 1 17 Jan 13:25:08 13:29:26 58° 287° (WNW) 13:33:40 434.975-435.025
UKube-1 17 Jan 13:31:00 13:35:18 69° 287° (WNW) 13:39:34 .
AO-85 17 Jan 13:33:53 13:35:33 12° 109° (ESE) 13:37:13 145.980
ITAMSAT 1 17 Jan 13:34:05 13:38:23 28° 64° (ENE) 13:42:43 435.822/435.867
SPROUT 17 Jan 13:36:20 13:39:59 29° 292° (WNW) 13:43:38 437.525
CUSAT 1 17 Jan 13:36:36 13:43:47 37° 68° (ENE) 13:50:51 437.405
CUBEBUG 1 17 Jan 13:38:27 13:40:55 15° 298° (WNW) 13:43:23 437.445
TISAT 1 17 Jan 13:40:10 13:44:13 47° 99° (E) 13:48:15 437.305
AISAT 17 Jan 13:45:22 13:48:28 19° 297° (WNW) 13:51:34 437.250
ITUPSAT 1 17 Jan 13:45:28 13:47:04 11° 88° (E) 13:48:41 437.325
DANDE 17 Jan 13:53:17 13:58:32 20° 63° (ENE) 14:04:15 436.750
AIST 1 17 Jan 14:06:38 14:10:46 43° 93° (E) 14:14:55
Cosmos 2504 17 Jan 14:07:16 14:14:01 26° 82° (E) 14:20:31 435.465 / 435.565
BEESAT 17 Jan 14:20:25 14:24:27 27° 95° (E) 14:28:28 436.000
SWISSCUBE 17 Jan 14:21:33 14:25:47 30° 96° (E) 14:30:00 437.505
Gurwin Techsat 1B 17 Jan 14:25:25 14:29:48 26° 266° (W) 14:34:12 435.225
Cosmos 2491 17 Jan 14:27:04 14:35:38 60° 269° (W) 14:44:12 435.465 / 435.565
YUBILEINY 17 Jan 14:35:39 14:44:22 69° 93° (E) 14:53:08 435.215
MOZHAYETS 4 17 Jan 14:46:13 14:48:57 15° 90° (E) 14:51:41
AO-7 17 Jan 15:00:36 15:08:59 81° 252° (WSW) 15:17:25 29.400- 29.500
AO-85 17 Jan 15:10:44 15:15:27 87° 304° (NW) 15:19:50 145.980
ITAMSAT 1 17 Jan 15:12:48 15:17:40 41° 262° (W) 15:22:34 435.822/435.867
TISAT 1 17 Jan 15:16:47 15:19:30 17° 297° (WNW) 15:22:12 437.305
CUSAT 1 17 Jan 15:18:19 15:26:01 56° 267° (W) 15:33:28 437.405
ITUPSAT 1 17 Jan 15:20:40 15:25:31 83° 284° (WNW) 15:30:19 437.325
BRITE-PL 17 Jan 15:33:45 15:38:48 34° 67° (ENE) 15:43:50 437.365/2234.400
DANDE 17 Jan 15:34:37 15:42:05 84° 80° (E) 15:50:29 436.750
O/OREOS (USA 219) 17 Jan 15:36:57 15:40:12 19° 52° (NE) 15:43:27 437.305
AIST 1 17 Jan 15:45:33 15:48:35 18° 290° (WNW) 15:51:38
KKS-1 17 Jan 15:49:19 15:52:40 21° 93° (E) 15:56:00 437.445
GOMX 1 17 Jan 15:55:34 15:59:45 23° 64° (ENE) 16:03:47 467.674
BEESAT 17 Jan 15:57:55 16:02:18 36° 292° (WNW) 16:06:40 436.000
Cosmos 2504 17 Jan 15:57:58 16:06:42 72° 280° (W) 16:14:58 435.465 / 435.565
HORYU 2 17 Jan 15:59:03 16:02:35 24° 65° (ENE) 16:06:10 437.375
SWISSCUBE 17 Jan 15:59:18 16:03:33 32° 293° (WNW) 16:07:47 437.505
CUTE-I 17 Jan 16:02:28 16:04:53 13° 56° (NE) 16:07:18 437.470
M-CUBED/EXP-1 PRIME 17 Jan 16:15:36 16:18:51 39° 104° (ESE) 16:21:57 437.505
SO-50 17 Jan 16:17:30 16:21:19 25° 41° (NE) 16:25:04 436.795
MOZHAYETS 4 17 Jan 16:21:56 16:26:30 60° 287° (WNW) 16:31:05
NOAA 18 17 Jan 16:22:56 16:25:11 13° 54° (NE) 16:27:24 137.9125
Cosmos 2491 17 Jan 16:28:30 16:30:28 11° 290° (WNW) 16:32:27 435.465 / 435.565
YUBILEINY 17 Jan 16:34:31 16:41:54 29° 295° (WNW) 16:49:23 435.215
Cubesat XI-IV 17 Jan 16:42:06 16:46:32 28° 64° (ENE) 16:50:59 437.490
BEESAT 3 17 Jan 16:43:57 16:47:14 26° 115° (ESE) 16:50:34 437.485
LilacSat-2 17 Jan 16:50:30 16:53:35 24° 68° (ENE) 16:56:42 437.200
DOVE 4 17 Jan 16:50:56 16:55:13 29° 68° (ENE) 16:59:20 437.250
STARS 17 Jan 16:51:01 16:55:10 41° 99° (E) 16:59:17 437.465
AO-85 17 Jan 16:53:43 16:56:26 16° 323° (NW) 16:59:03 145.980
AUBIESAT-1 17 Jan 16:54:58 16:58:24 77° 290° (WNW) 17:01:42 437.475
AO-7 17 Jan 16:57:59 17:02:59 17° 272° (W) 17:08:02 29.400- 29.500
CUBESAT XI-V 17 Jan 16:58:51 17:03:29 54° 100° (E) 17:08:03 437.345
ITUPSAT 1 17 Jan 17:01:00 17:02:33 11° 303° (WNW) 17:04:05 437.325
NOAA 15 17 Jan 17:02:00 17:06:58 43° 68° (ENE) 17:11:57 137.62
CUSAT 1 17 Jan 17:04:20 17:06:18 11° 286° (WNW) 17:08:15 437.405
BRITE-PL 17 Jan 17:11:51 17:17:08 39° 264° (W) 17:22:26 437.365/2234.400
O/OREOS (USA 219) 17 Jan 17:15:33 17:19:56 53° 251° (WSW) 17:24:19 437.305
DANDE 17 Jan 17:18:36 17:24:12 23° 275° (W) 17:30:13 436.750
BEESAT 2 17 Jan 17:21:32 17:24:57 29° 116° (ESE) 17:28:26 435.950
KKS-1 17 Jan 17:25:15 17:29:23 40° 290° (WNW) 17:33:31 437.445
GOMX 1 17 Jan 17:32:08 17:37:28 54° 261° (W) 17:42:38 467.674
HORYU 2 17 Jan 17:34:57 17:38:59 35° 262° (W) 17:43:02 437.375
CUTE-I 17 Jan 17:38:48 17:44:06 84° 74° (ENE) 17:49:27 437.470
CUTE 1.7 + AOD 2 17 Jan 17:46:18 17:48:17 13° 61° (ENE) 17:50:17 437.475
M-CUBED/EXP-1 PRIME 17 Jan 17:51:08 17:53:01 14° 303° (WNW) 17:54:50 437.505
Cosmos 2504 17 Jan 17:56:40 18:01:36 16° 302° (WNW) 18:06:24 435.465 / 435.565
SO-50 17 Jan 17:57:39 18:02:00 48° 241° (WSW) 18:06:17 436.795
NOAA 18 17 Jan 17:59:25 18:04:55 75° 73° (ENE) 18:10:25 137.9125
HO-68 17 Jan 18:00:21 18:06:50 38° 62° (ENE) 18:13:21 435.675
CANX-2 17 Jan 18:12:57 18:16:32 27° 68° (ENE) 18:20:10 2200.000
BEESAT 3 17 Jan 18:21:14 18:24:46 32° 313° (NW) 18:28:21 437.485
Cubesat XI-IV 17 Jan 18:21:22 18:26:24 43° 261° (W) 18:31:28 437.490
CUBEBUG 2 17 Jan 18:24:03 18:26:08 14° 62° (ENE) 18:28:12 437.445
LilacSat-2 17 Jan 18:24:40 18:27:48 25° 265° (W) 18:30:58 437.200
STARS 17 Jan 18:28:00 18:31:15 21° 296° (WNW) 18:34:28 437.465
DOVE 4 17 Jan 18:28:08 18:32:47 36° 263° (W) 18:37:15 437.250
SEEDS 17 Jan 18:30:50 18:34:17 25° 67° (ENE) 18:37:46 437.485
Cosmos 2499 17 Jan 18:30:53 18:36:12 19° 79° (E) 18:41:19 435.465 / 435.565
CUBESAT XI-V 17 Jan 18:37:12 18:40:26 19° 297° (WNW) 18:43:40 437.345
CINEMA 3 17 Jan 18:42:22 18:46:51 85° 79° (E) 18:51:11 145.822/145.860
NOAA 15 17 Jan 18:42:27 18:46:52 27° 265° (W) 18:51:21 137.62
COMPASS 1 17 Jan 18:42:30 18:45:46 22° 66° (ENE) 18:49:03 437.405
AAUSAT CUBESAT 2 17 Jan 18:56:53 19:00:15 24° 67° (ENE) 19:03:39 437.432
UWE-3 17 Jan 18:58:02 19:01:01 19° 65° (ENE) 19:03:59 435.000/436.395/437.385
BEESAT 2 17 Jan 18:59:10 19:02:41 30° 314° (NW) 19:06:17 435.950
FUNcube-1 17 Jan 19:03:53 19:05:43 13° 61° (ENE) 19:07:34 145.935
STRAND 1 17 Jan 19:05:40 19:10:19 33° 96° (E) 19:14:57 437.568
CUTE 1.7 + AOD 2 17 Jan 19:19:21 19:23:34 68° 259° (W) 19:27:50 437.475
CUTE-I 17 Jan 19:22:21 19:24:48 13° 272° (W) 19:27:17 437.470
GONETS M04 17 Jan 19:23:34 19:31:09 35° 84° (E) 19:38:47
ZACube-1 17 Jan 19:23:35 19:26:46 22° 66° (ENE) 19:29:58 437.345
NOAA 18 17 Jan 19:42:51 19:46:08 16° 270° (W) 19:49:26 137.9125
HO-68 17 Jan 19:47:32 19:54:24 47° 260° (W) 20:01:20 435.675
CANX-2 17 Jan 19:48:38 19:52:19 28° 265° (W) 19:56:03 2200.000
CUBEBUG 2 17 Jan 19:58:08 20:02:17 60° 259° (W) 20:06:24 437.445
Oscar 11 17 Jan 20:04:33 20:08:42 51° 73° (ENE) 20:12:56 145.826/435.025
HUMSAT D 17 Jan 20:04:41 20:05:07 10° 59° (ENE) 20:05:32 437.325/437.525
SEEDS 17 Jan 20:06:06 20:09:50 31° 264° (W) 20:13:39 437.485
COMPASS 1 17 Jan 20:17:17 20:21:07 35° 263° (W) 20:25:00 437.405
Cosmos 2499 17 Jan 20:19:47 20:28:20 90° 97° (E) 20:36:17 435.465 / 435.565
PRISM 17 Jan 20:26:16 20:26:32 10° 89° (E) 20:26:48 437.425
AIST 2 17 Jan 20:28:58 20:33:01 58° 121° (ESE) 20:37:08 435.215
AAUSAT CUBESAT 2 17 Jan 20:31:52 20:35:36 31° 264° (W) 20:39:21 437.432
UWE-3 17 Jan 20:33:20 20:37:13 39° 262° (W) 20:41:08 435.000/436.395/437.385
FUNcube-1 17 Jan 20:37:21 20:41:26 65° 259° (W) 20:45:34 145.935
DELFI C3 17 Jan 20:40:16 20:44:03 41° 71° (ENE) 20:47:52 145.870
STRAND 1 17 Jan 20:44:53 20:49:26 33° 294° (WNW) 20:53:59 437.568
ZACube-1 17 Jan 20:59:06 21:02:52 34° 263° (W) 21:06:40 437.345
GONETS M04 17 Jan 21:19:06 21:27:35 55° 285° (WNW) 21:36:11
UNISAT 6 17 Jan 21:28:01 21:30:57 17° 92° (E) 21:33:55 437.425
JAS-2 17 Jan 21:30:39 21:32:52 11° 85° (E) 21:35:08 435.910
HUMSAT D 17 Jan 21:35:57 21:40:02 84° 258° (WSW) 21:44:12 437.325/437.525
ESTCUBE 1 17 Jan 21:41:14 21:44:18 18° 63° (ENE) 21:47:23 437.505/2401.250
TIGRISAT 17 Jan 21:41:54 21:45:21 22° 94° (E) 21:48:51 435.000
Oscar 11 17 Jan 21:42:32 21:45:10 16° 270° (W) 21:47:48 145.826/435.025
BY70-1 17 Jan 21:50:17 21:52:54 29° 70° (ENE) 21:55:43 436.1900
ANTELSAT 17 Jan 21:55:58 21:59:57 33° 97° (E) 22:04:00 437.575/2403.000
PRISM 17 Jan 21:58:11 22:02:20 73° 286° (WNW) 22:06:24 437.425
AO-85 17 Jan 22:01:17 22:03:58 17° 39° (NE) 22:06:35 145.980
VELOX 1 17 Jan 22:06:40 22:08:38 13° 60° (ENE) 22:10:36 145.980
AIST 2 17 Jan 22:08:45 22:11:51 20° 320° (NW) 22:14:59 435.215
DELFI C3 17 Jan 22:16:26 22:19:03 17° 268° (W) 22:21:41 145.870
Cosmos 2499 17 Jan 22:16:37 22:22:29 20° 297° (WNW) 22:28:06 435.465 / 435.565
DX 1 17 Jan 22:47:38 22:50:23 17° 62° (ENE) 22:53:08 434.975-435.025
ISS 17 Jan 22:50:09 22:52:34 19° 136° (SE) 22:54:59 145.825
UKube-1 17 Jan 22:53:13 22:55:27 14° 61° (ENE) 22:57:41 .
SPROUT 17 Jan 22:55:28 22:59:00 26° 67° (ENE) 23:02:34 437.525
RS-15 17 Jan 22:57:53 23:07:49 33° 103° (ESE) 23:18:03 29.354- 29.394
CUBEBUG 1 17 Jan 22:57:53 23:02:14 61° 73° (ENE) 23:06:36 437.445
UNISAT 6 17 Jan 23:03:40 23:07:54 48° 288° (WNW) 23:12:13 437.425
AISAT 17 Jan 23:06:36 23:10:55 50° 72° (ENE) 23:15:14 437.250
JAS-2 17 Jan 23:11:57 23:18:56 64° 101° (ESE) 23:26:33 435.910
ESTCUBE 1 17 Jan 23:16:17 23:20:42 53° 260° (W) 23:25:10 437.505/2401.250
TIGRISAT 17 Jan 23:18:06 23:22:08 37° 290° (WNW) 23:26:16 435.000
BY70-1 17 Jan 23:21:53 23:23:26 13° 269° (W) 23:25:03 436.1900
GONETS M04 17 Jan 23:23:59 23:26:51 12° 310° (NW) 23:29:45
QB50P1 17 Jan 23:31:15 23:35:05 33° 97° (E) 23:38:55 145.935-145.965
ANTELSAT 17 Jan 23:32:54 23:36:33 26° 293° (WNW) 23:40:15 437.575/2403.000
POLYITAN 1 17 Jan 23:34:24 23:38:19 36° 97° (E) 23:42:14 437.675
QB50P2 17 Jan 23:35:30 23:39:30 40° 98° (E) 23:43:28 145.880/145.840
VELOX 1 17 Jan 23:40:01 23:44:28 77° 257° (WSW) 23:48:57 145.980
AO-85 17 Jan 23:40:52 23:44:45 62° 239° (WSW) 23:48:35 145.980
50 SAT 17 Jan 23:46:59 23:50:33 78° 258° (WSW) 23:54:10 437.505
POPSAT HIP 1 17 Jan 23:57:38 00:01:50 65° 101° (E) 00:06:01 437.405
DUCHIFAT 1 18 Jan 00:12:07 00:16:19 81° 101° (E) 00:20:31 145.980
AIST 1 18 Jan 00:13:11 00:15:18 13° 67° (ENE) 00:17:25
NANOSAT C BR1 18 Jan 00:16:08 00:20:20 84° 287° (WNW) 00:24:33 145.865
PCSat 18 Jan 00:20:39 00:24:11 18° 105° (ESE) 00:27:44 145.827
DX 1 18 Jan 00:21:51 00:26:09 55° 259° (W) 00:30:28 434.975-435.025
ISS 18 Jan 00:25:33 00:28:46 62° 332° (NNW) 00:32:01 145.825
UKube-1 18 Jan 00:26:39 00:30:58 66° 258° (WSW) 00:35:17 .
SPROUT 18 Jan 00:31:05 00:34:50 30° 264° (W) 00:38:36 437.525
TISAT 1 18 Jan 00:33:04 00:37:02 43° 71° (ENE) 00:41:00 437.305
CUBEBUG 1 18 Jan 00:36:37 00:38:54 14° 270° (W) 00:41:12 437.445
YUBILEINY 18 Jan 00:44:01 00:52:05 37° 69° (ENE) 01:00:02 435.215
AISAT 18 Jan 00:44:45 00:47:39 17° 268° (W) 00:50:33 437.250
ITUPSAT 1 18 Jan 00:53:06 00:56:16 18° 61° (ENE) 00:59:26 437.325
JAS-2 18 Jan 00:57:46 01:03:33 30° 298° (WNW) 01:09:48 435.910
BUGSAT 1 18 Jan 00:58:26 01:02:29 85° 280° (W) 01:06:31 437.445
BEESAT 3 18 Jan 00:58:48 01:02:22 30° 46° (NE) 01:05:55 437.485
Gurwin Techsat 1B 18 Jan 01:00:27 01:03:25 15° 89° (E) 01:06:23 435.225
RS-15 18 Jan 01:07:10 01:19:08 79° 307° (NW) 01:31:36 29.354- 29.394
QB50P1 18 Jan 01:07:21 01:10:41 23° 294° (WNW) 01:14:02 145.935-145.965
Oscar 19 18 Jan 01:07:47 01:12:23 31° 96° (E) 01:16:56 437.125/150
POLYITAN 1 18 Jan 01:10:40 01:13:54 22° 294° (WNW) 01:17:08 437.675
QB50P2 18 Jan 01:11:56 01:15:01 20° 295° (WNW) 01:18:06 145.880/145.840
BEESAT 18 Jan 01:28:12 01:32:33 37° 68° (ENE) 01:36:55 436.000
SWISSCUBE 18 Jan 01:29:23 01:33:51 42° 69° (ENE) 01:38:21 437.505
Cosmos 2491 18 Jan 01:34:28 01:42:01 35° 84° (E) 01:49:35 435.465 / 435.565
POPSAT HIP 1 18 Jan 01:35:02 01:37:06 13° 299° (WNW) 01:39:10 437.405
BEESAT 2 18 Jan 01:37:19 01:41:00 33° 47° (NE) 01:44:41 435.950
AIST 1 18 Jan 01:49:07 01:53:20 59° 265° (W) 01:57:30
Cosmos 2504 18 Jan 01:49:22 01:56:34 45° 73° (ENE) 02:03:23 435.465 / 435.565
MOZHAYETS 4 18 Jan 01:49:43 01:52:51 19° 63° (ENE) 01:56:01
DUCHIFAT 1 18 Jan 01:50:14 01:51:23 11° 300° (WNW) 01:52:30 145.980
PCSat 18 Jan 02:01:35 02:06:59 71° 303° (WNW) 02:12:25 145.827
ISS 18 Jan 02:02:59 02:05:42 24° 352° (N) 02:08:25 145.825
AUBIESAT-1 18 Jan 02:08:29 02:11:24 18° 60° (ENE) 02:14:12 437.475
TISAT 1 18 Jan 02:10:05 02:12:52 17° 268° (W) 02:15:40 437.305
ITUPSAT 1 18 Jan 02:28:57 02:33:38 59° 259° (WSW) 02:38:22 437.325
BEESAT 3 18 Jan 02:36:26 02:39:57 30° 244° (WSW) 02:43:26 437.485
Gurwin Techsat 1B 18 Jan 02:38:38 02:43:57 75° 286° (WNW) 02:49:15 435.225
YUBILEINY 18 Jan 02:40:42 02:49:11 54° 271° (W) 02:57:35 435.215
CUSAT 1 18 Jan 02:41:10 02:45:01 22° 81° (E) 02:49:35 437.405
Oscar 19 18 Jan 02:47:02 02:51:43 35° 293° (WNW) 02:56:21 437.125/150
KKS-1 18 Jan 02:48:51 02:52:27 25° 65° (ENE) 02:56:03 437.445
AO-7 18 Jan 03:00:54 03:08:08 31° 95° (E) 03:15:17 29.400- 29.500
M-CUBED/EXP-1 PRIME 18 Jan 03:01:59 03:06:26 78° 70° (ENE) 03:10:35 437.505
BEESAT 18 Jan 03:06:27 03:10:24 26° 265° (W) 03:14:23 436.000
SWISSCUBE 18 Jan 03:08:05 03:11:49 23° 267° (W) 03:15:33 437.505
AIST 2 18 Jan 03:11:42 03:13:33 12° 33° (NNE) 03:15:25 435.215
BEESAT 2 18 Jan 03:15:15 03:18:42 27° 245° (WSW) 03:22:08 435.950
RS-15 18 Jan 03:23:05 03:33:56 35° 336° (NNW) 03:45:01 29.354- 29.394
ITAMSAT 1 18 Jan 03:23:24 03:28:35 61° 102° (ESE) 03:33:44 435.822/435.867
MOZHAYETS 4 18 Jan 03:25:11 03:29:37 52° 260° (W) 03:34:08
Cosmos 2491 18 Jan 03:29:58 03:38:27 55° 285° (WNW) 03:47:01 435.465 / 435.565
ISS 18 Jan 03:40:02 03:42:52 26° 12° (NNE) 03:45:41 145.825
AUBIESAT-1 18 Jan 03:41:19 03:45:32 49° 255° (WSW) 03:49:31 437.475
Cosmos 2504 18 Jan 03:43:09 03:49:42 35° 275° (W) 03:56:01 435.465 / 435.565
PCSat 18 Jan 03:48:04 03:51:23 16° 325° (NW) 03:54:43 145.827
STARS 18 Jan 03:48:55 03:53:06 46° 71° (ENE) 03:57:18 437.465
CUBESAT XI-V 18 Jan 04:03:20 04:07:58 63° 73° (ENE) 04:12:39 437.345
Gurwin Techsat 1B 18 Jan 04:21:03 04:22:59 12° 305° (NW) 04:24:55 435.225
PHONESAT 2.4 18 Jan 04:22:49 04:24:46 24° 170° (S) 04:26:45 2401.200-2431.200
